AEE730 LGAV-LTFM

Flight info

Callsign AEE730
Flight time 0h 50m
Altitude 38000
Route LGAV/03R KRO2E KRO UN604 INBET INBE1A LTFM/35R
Aircraft A20N/M-SDE2E3FGHIJ1RWXY/LB1

Departure

Time 2026-05-04 14:18
Airport Athens Eleftherios Venizelos International Airport (LGAV)

Arrival

Time 2026-05-04 15:09
Airport İstanbul Airport (LTFM)
Time Latitude Longitude Altitude Speed Heading
2026-05-04 13:47 37.93327 23.94587 289 ft 0 kts 311°
2026-05-04 14:09 37.93318 23.94601 285 ft 2 kts 306°
2026-05-04 14:09 37.93309 23.94618 285 ft 2 kts 298°
2026-05-04 14:10 37.93300 23.94658 285 ft 2 kts 267°
2026-05-04 14:10 37.93303 23.94678 285 ft 2 kts 243°
2026-05-04 14:10 37.93312 23.94695 294 ft 2 kts 223°
2026-05-04 14:10 37.93317 23.94700 294 ft 0 kts 217°
2026-05-04 14:14 37.93309 23.94693 285 ft 3 kts 217°
2026-05-04 14:14 37.93284 23.94669 289 ft 6 kts 216°
2026-05-04 14:15 37.93213 23.94610 288 ft 4 kts 194°
2026-05-04 14:15 37.93113 23.94603 289 ft 10 kts 157°
2026-05-04 14:16 37.92976 23.94635 287 ft 13 kts 216°
2026-05-04 14:16 37.92893 23.94559 293 ft 16 kts 217°
2026-05-04 14:17 37.92691 23.94368 293 ft 20 kts 217°
2026-05-04 14:17 37.92567 23.94301 295 ft 20 kts 158°
2026-05-04 14:17 37.92616 23.94573 292 ft 47 kts 36°
2026-05-04 14:18 37.93116 23.95051 285 ft 129 kts 37°
2026-05-04 14:18 37.94649 23.96453 974 ft 184 kts 36°
2026-05-04 14:19 37.96675 23.98452 2918 ft 198 kts 34°
2026-05-04 14:19 37.97831 23.99579 3528 ft 221 kts 34°
2026-05-04 14:19 37.99105 24.00812 4221 ft 239 kts 33°
2026-05-04 14:19 38.00432 24.02092 5125 ft 244 kts 33°
2026-05-04 14:20 38.01691 24.03616 5901 ft 266 kts 52°
2026-05-04 14:20 38.02433 24.05846 6676 ft 282 kts 70°
2026-05-04 14:20 38.02898 24.08271 7706 ft 283 kts 74°
2026-05-04 14:21 38.03748 24.13155 9774 ft 285 kts 73°
2026-05-04 14:21 38.04221 24.15618 10614 ft 293 kts 72°
2026-05-04 14:21 38.04746 24.18216 11024 ft 315 kts 72°
2026-05-04 14:21 38.05317 24.20993 11435 ft 334 kts 72°
2026-05-04 14:22 38.05905 24.23860 12272 ft 337 kts 72°
2026-05-04 14:22 38.06551 24.26714 13205 ft 336 kts 64°
2026-05-04 14:22 38.07759 24.29227 14042 ft 335 kts 51°
2026-05-04 14:22 38.09167 24.31621 14779 ft 340 kts 51°
2026-05-04 14:23 38.12056 24.36483 16216 ft 350 kts 51°
2026-05-04 14:23 38.13525 24.38970 16940 ft 354 kts 51°
2026-05-04 14:23 38.15013 24.41499 17611 ft 360 kts 51°
2026-05-04 14:24 38.16517 24.44062 18321 ft 364 kts 51°
2026-05-04 14:24 38.18036 24.46659 18931 ft 368 kts 52°
2026-05-04 14:24 38.19569 24.49281 19564 ft 371 kts 52°
2026-05-04 14:24 38.21111 24.51921 20196 ft 374 kts 52°
2026-05-04 14:25 38.22672 24.54594 20769 ft 378 kts 52°
2026-05-04 14:25 38.25823 24.60001 21992 ft 385 kts 52°
2026-05-04 14:25 38.27423 24.62749 22583 ft 387 kts 52°
2026-05-04 14:26 38.29027 24.65507 23249 ft 389 kts 52°
2026-05-04 14:26 38.30653 24.68303 23687 ft 396 kts 52°
2026-05-04 14:26 38.32289 24.71121 24279 ft 396 kts 52°
2026-05-04 14:26 38.33930 24.73949 24740 ft 399 kts 53°
2026-05-04 14:27 38.35584 24.76803 25255 ft 400 kts 53°
2026-05-04 14:27 38.37241 24.79663 25740 ft 404 kts 53°
2026-05-04 14:27 38.38917 24.82561 26119 ft 408 kts 53°
2026-05-04 14:27 38.40601 24.85472 26634 ft 408 kts 53°
2026-05-04 14:28 38.42295 24.88403 27013 ft 413 kts 53°
2026-05-04 14:28 38.43995 24.91351 27530 ft 413 kts 54°
2026-05-04 14:28 38.45682 24.94277 27874 ft 417 kts 54°
2026-05-04 14:28 38.47403 24.97265 28350 ft 418 kts 54°
2026-05-04 14:29 38.50869 25.03293 29207 ft 421 kts 54°
2026-05-04 14:29 38.54362 25.09377 30013 ft 424 kts 54°
2026-05-04 14:30 38.56104 25.12418 30474 ft 421 kts 54°
2026-05-04 14:30 38.57802 25.15387 31453 ft 405 kts 53°
2026-05-04 14:30 38.60955 25.20921 33537 ft 371 kts 51°
2026-05-04 14:31 38.62463 25.23572 34022 ft 369 kts 51°
2026-05-04 14:31 38.65520 25.28929 34329 ft 376 kts 51°
2026-05-04 14:32 38.68615 25.34359 34741 ft 379 kts 51°
2026-05-04 14:32 38.70168 25.37090 34930 ft 381 kts 51°
2026-05-04 14:32 38.71724 25.39825 35188 ft 380 kts 52°
2026-05-04 14:32 38.73279 25.42565 35399 ft 381 kts 51°
2026-05-04 14:33 38.74845 25.45323 35522 ft 385 kts 52°
2026-05-04 14:33 38.76426 25.48108 35659 ft 387 kts 51°
2026-05-04 14:33 38.78010 25.50906 35790 ft 390 kts 51°
2026-05-04 14:34 38.81244 25.56621 35884 ft 401 kts 51°
2026-05-04 14:34 38.84557 25.62486 35970 ft 411 kts 51°
2026-05-04 14:35 38.87949 25.68502 36089 ft 421 kts 51°
2026-05-04 14:35 38.91417 25.74667 36188 ft 431 kts 52°
2026-05-04 14:36 38.94958 25.80975 36289 ft 440 kts 52°
2026-05-04 14:36 38.96748 25.84169 36443 ft 441 kts 52°
2026-05-04 14:36 38.98545 25.87378 36583 ft 443 kts 52°
2026-05-04 14:36 39.00346 25.90597 36791 ft 443 kts 52°
2026-05-04 14:37 39.02146 25.93818 36990 ft 444 kts 52°
2026-05-04 14:37 39.05748 26.00275 37072 ft 443 kts 52°
2026-05-04 14:38 39.09335 26.06716 37068 ft 443 kts 52°
2026-05-04 14:38 39.12919 26.13161 37063 ft 443 kts 52°
2026-05-04 14:39 39.16500 26.19613 37065 ft 442 kts 52°
2026-05-04 14:39 39.20075 26.26070 37081 ft 443 kts 52°
2026-05-04 14:40 39.23699 26.32628 37063 ft 454 kts 52°
2026-05-04 14:40 39.28148 26.40701 37064 ft 453 kts 52°
2026-05-04 14:40 39.36362 26.52705 37057 ft 446 kts 35°
2026-05-04 14:40 39.55995 26.70367 37120 ft 441 kts 33°
2026-05-04 14:41 39.73630 26.86311 37067 ft 442 kts 33°
2026-05-04 14:41 39.78631 26.90854 36739 ft 428 kts 33°
2026-05-04 14:42 39.83411 26.95202 36232 ft 425 kts 34°
2026-05-04 14:42 39.85834 26.97408 35987 ft 425 kts 34°
2026-05-04 14:42 39.88255 26.99615 35727 ft 423 kts 34°
2026-05-04 14:43 39.90653 27.01803 35471 ft 419 kts 34°
2026-05-04 14:43 39.94681 27.05483 35055 ft 418 kts 34°
2026-05-04 14:43 39.99443 27.09835 33599 ft 416 kts 35°
2026-05-04 14:43 40.04109 27.14114 32175 ft 404 kts 35°
2026-05-04 14:44 40.10110 27.19629 30145 ft 389 kts 35°
2026-05-04 14:44 40.19414 27.26927 28133 ft 389 kts 17°
2026-05-04 14:44 40.27889 27.28093 26469 ft 364 kts
2026-05-04 14:44 40.30499 27.28285 25961 ft 387 kts
2026-05-04 14:45 40.33238 27.28486 25417 ft 398 kts
2026-05-04 14:45 40.36014 27.28681 24870 ft 399 kts
2026-05-04 14:45 40.38751 27.28867 24295 ft 388 kts
2026-05-04 14:45 40.41409 27.29046 23776 ft 375 kts
2026-05-04 14:46 40.43976 27.29220 23193 ft 363 kts
2026-05-04 14:46 40.46452 27.29390 22726 ft 352 kts
2026-05-04 14:46 40.48885 27.29558 22222 ft 348 kts
2026-05-04 14:46 40.51285 27.29726 21732 ft 343 kts
2026-05-04 14:47 40.53621 27.30192 21320 ft 343 kts 20°
2026-05-04 14:47 40.55777 27.31702 21062 ft 359 kts 37°
2026-05-04 14:47 40.57498 27.34079 20809 ft 361 kts 53°
2026-05-04 14:47 40.58583 27.37060 20573 ft 364 kts 66°
2026-05-04 14:48 40.59388 27.40226 20324 ft 365 kts 67°
2026-05-04 14:48 40.60184 27.43392 20064 ft 364 kts 67°
2026-05-04 14:48 40.60979 27.46552 19839 ft 363 kts 67°
2026-05-04 14:48 40.61776 27.49699 19611 ft 362 kts 67°
2026-05-04 14:49 40.62569 27.52823 19368 ft 359 kts 67°
2026-05-04 14:49 40.63359 27.55939 19136 ft 359 kts 67°
2026-05-04 14:49 40.64149 27.59054 18896 ft 358 kts 67°
2026-05-04 14:49 40.64936 27.62156 18657 ft 356 kts 67°
2026-05-04 14:50 40.65717 27.65250 18431 ft 356 kts 67°
2026-05-04 14:50 40.66498 27.68340 18179 ft 355 kts 67°
2026-05-04 14:50 40.67276 27.71418 17913 ft 353 kts 67°
2026-05-04 14:50 40.68048 27.74479 17641 ft 351 kts 67°
2026-05-04 14:51 40.68814 27.77518 17378 ft 349 kts 67°
2026-05-04 14:51 40.69576 27.80546 17115 ft 347 kts 67°
2026-05-04 14:51 40.70332 27.83555 16854 ft 345 kts 67°
2026-05-04 14:51 40.71083 27.86547 16594 ft 343 kts 66°
2026-05-04 14:52 40.71830 27.89527 16326 ft 341 kts 67°
2026-05-04 14:52 40.72571 27.92487 16074 ft 339 kts 67°
2026-05-04 14:52 40.73308 27.95436 15682 ft 339 kts 67°
2026-05-04 14:52 40.74041 27.98372 15058 ft 335 kts 67°
2026-05-04 14:53 40.74760 28.01261 14341 ft 329 kts 66°
2026-05-04 14:53 40.75464 28.04100 13694 ft 321 kts 66°
2026-05-04 14:53 40.76162 28.06904 13192 ft 326 kts 66°
2026-05-04 14:53 40.76872 28.09751 12800 ft 325 kts 66°
2026-05-04 14:54 40.77571 28.12571 12524 ft 323 kts 66°
2026-05-04 14:54 40.78273 28.15399 12075 ft 326 kts 66°
2026-05-04 14:54 40.78974 28.18233 11561 ft 324 kts 66°
2026-05-04 14:54 40.79672 28.21056 10919 ft 325 kts 66°
2026-05-04 14:55 40.80375 28.23901 10299 ft 324 kts 66°
2026-05-04 14:55 40.81056 28.26679 9822 ft 312 kts 66°
2026-05-04 14:55 40.81702 28.29327 9522 ft 296 kts 65°
2026-05-04 14:55 40.82314 28.31839 9228 ft 282 kts 65°
2026-05-04 14:56 40.82916 28.34276 8707 ft 278 kts 65°
2026-05-04 14:56 40.83508 28.36657 8193 ft 276 kts 65°
2026-05-04 14:56 40.84103 28.39060 7702 ft 274 kts 65°
2026-05-04 14:56 40.84686 28.41440 7170 ft 272 kts 65°
2026-05-04 14:57 40.85271 28.43823 6543 ft 274 kts 65°
2026-05-04 14:57 40.85855 28.46206 6080 ft 269 kts 65°
2026-05-04 14:57 40.86433 28.48540 5802 ft 267 kts 65°
2026-05-04 14:57 40.87014 28.50855 5517 ft 264 kts 65°
2026-05-04 14:58 40.87597 28.53148 5246 ft 264 kts 65°
2026-05-04 14:58 40.88181 28.55424 5063 ft 258 kts 64°
2026-05-04 14:58 40.89026 28.57469 4988 ft 252 kts 48°
2026-05-04 14:58 40.89718 28.58741 4980 ft 252 kts 48°
2026-05-04 14:59 40.91075 28.61219 4984 ft 251 kts 49°
2026-05-04 14:59 40.92099 28.63093 4987 ft 252 kts 49°
2026-05-04 14:59 40.94139 28.66863 5002 ft 252 kts 49°
2026-05-04 15:00 40.95162 28.68760 4996 ft 253 kts 49°
2026-05-04 15:00 40.96153 28.70615 4995 ft 237 kts 49°
2026-05-04 15:00 40.97163 28.72157 4995 ft 207 kts 32°
2026-05-04 15:01 40.99460 28.73238 5008 ft 149 kts
2026-05-04 15:01 41.00408 28.73300 4979 ft 127 kts 359°
2026-05-04 15:01 41.01306 28.73297 4996 ft 130 kts 358°
2026-05-04 15:01 41.02187 28.73282 4984 ft 123 kts 358°
2026-05-04 15:02 41.03029 28.73264 4872 ft 121 kts 358°
2026-05-04 15:02 41.03862 28.73246 4731 ft 120 kts 358°
2026-05-04 15:02 41.04699 28.73229 4575 ft 120 kts 358°
2026-05-04 15:02 41.05532 28.73212 4418 ft 119 kts 358°
2026-05-04 15:03 41.06360 28.73195 4258 ft 119 kts 359°
2026-05-04 15:03 41.06909 28.73184 4151 ft 119 kts 359°
2026-05-04 15:03 41.07745 28.73165 3992 ft 120 kts 359°
2026-05-04 15:03 41.08574 28.73149 3828 ft 119 kts 359°
2026-05-04 15:04 41.09437 28.73132 3666 ft 140 kts 359°
2026-05-04 15:04 41.10439 28.73110 3476 ft 144 kts 359°
2026-05-04 15:04 41.11440 28.73089 3283 ft 146 kts 360°
2026-05-04 15:04 41.12457 28.73068 3079 ft 147 kts 360°
2026-05-04 15:05 41.13482 28.73047 2873 ft 147 kts 360°
2026-05-04 15:05 41.14492 28.73026 2658 ft 145 kts
2026-05-04 15:05 41.15503 28.73005 2491 ft 145 kts
2026-05-04 15:05 41.16508 28.72983 2268 ft 143 kts
2026-05-04 15:06 41.17530 28.72965 2080 ft 148 kts 359°
2026-05-04 15:06 41.18520 28.72941 1881 ft 136 kts
2026-05-04 15:06 41.19423 28.72924 1721 ft 124 kts 360°
2026-05-04 15:07 41.21103 28.72890 1379 ft 120 kts
2026-05-04 15:07 41.21939 28.72871 1195 ft 123 kts 360°
2026-05-04 15:07 41.22792 28.72855 1038 ft 120 kts 359°
2026-05-04 15:07 41.23629 28.72837 862 ft 121 kts 358°
2026-05-04 15:08 41.24476 28.72818 701 ft 120 kts 358°
2026-05-04 15:08 41.25306 28.72803 545 ft 122 kts 358°
2026-05-04 15:08 41.26145 28.72784 385 ft 121 kts 357°
2026-05-04 15:08 41.26946 28.72765 304 ft 93 kts 359°
2026-05-04 15:09 41.27376 28.72756 295 ft 36 kts 359°
2026-05-04 15:09 41.27612 28.72744 284 ft 26 kts 358°
2026-05-04 15:09 41.27802 28.72744 280 ft 28 kts 359°
2026-05-04 15:10 41.28104 28.72861 274 ft 0 kts 25°
2026-05-04 15:10 41.28106 28.72862 274 ft 2 kts 25°
2026-05-04 15:11 41.28131 28.72882 277 ft 6 kts 36°
2026-05-04 15:11 41.28134 28.72933 275 ft 6 kts 121°
2026-05-04 15:11 41.28094 28.72963 276 ft 7 kts 172°
2026-05-04 15:11 41.28043 28.72970 280 ft 8 kts 174°
2026-05-04 15:12 41.27986 28.72974 280 ft 9 kts 180°
2026-05-04 15:12 41.27922 28.72974 282 ft 10 kts 180°
2026-05-04 15:12 41.27850 28.72974 285 ft 11 kts 180°
2026-05-04 15:12 41.27773 28.72974 292 ft 11 kts 180°
2026-05-04 15:13 41.27700 28.72974 291 ft 9 kts 180°
2026-05-04 15:13 41.27632 28.72975 297 ft 10 kts 179°
2026-05-04 15:13 41.27558 28.72976 300 ft 11 kts 179°
2026-05-04 15:13 41.27476 28.72978 301 ft 6 kts 178°
2026-05-04 15:14 41.27475 28.72978 301 ft 0 kts 178°
2026-05-04 15:15 41.27473 28.72978 300 ft 1 kts 178°
2026-05-04 15:15 41.27460 28.72978 300 ft 3 kts 178°
2026-05-04 15:15 41.27346 28.72980 303 ft 33 kts 179°
2026-05-04 15:16 41.26994 28.72983 307 ft 23 kts 178°
2026-05-04 15:16 41.26896 28.73001 308 ft 14 kts 156°
2026-05-04 15:16 41.26846 28.73217 312 ft 11 kts 103°
2026-05-04 15:17 41.26834 28.73315 312 ft 11 kts 141°
2026-05-04 15:17 41.26759 28.73330 313 ft 5 kts 180°
2026-05-04 15:17 41.26810 28.73330 313 ft 9 kts 180°
2026-05-04 15:18 41.26854 28.73327 311 ft 1 kts 123°
2026-05-04 15:18 41.26853 28.73334 313 ft 0 kts 105°
2026-05-04 15:19 41.26863 28.73415 313 ft 24 kts 78°
2026-05-04 15:20 41.26872 28.73526 312 ft 13 kts 88°
2026-05-04 15:20 41.26845 28.73630 312 ft 6 kts 171°
2026-05-04 15:20 41.26784 28.73622 313 ft 9 kts 179°
2026-05-04 15:20 41.26771 28.73622 313 ft 0 kts 180°